Location: Glendale
(37.4556°N, 88.6714°W)
Time: 23:44:44
(UTC+00:00)

Cosmos 1140 Rocket - Pass Details

Date: 08 December 2019
Orbit: 744 x 768 km, 74.1° (Epoch: 20 January)

Event Time Altitude Azimuth Distance (km) Brightness Sun altitude
Rises 00:40:59 0° 189° (S) 3,168 7.0 -24.1°
Reaches altitude 10° 00:43:20 10° 187° (S) 2,248 6.1 -24.5°
Enters shadow 00:47:40 60° 151° (SSE) 851 3.5 -25.4°
